Weather in Novomusino

Russia / Orenburg Oblast     52°55′13″N   54°25′01″E
temp.,
°C
wind,
m/s
gust,
m/s
humid.,
%
clouds,
%
prec.,
mm/h
press.,
hPa
HPBL,
m
1 july, fri
fri123:00+13sw3368100 0.0 100929
02:00+12sw2274100 0.2 100911
05:00+10ssw2283100 0.7 100912
08:00+12e3591100 1.6 1009155
11:00+15se457483 1.9 1010358
14:00+20sse664771 0.0 10102044
17:00+17sse7961100 0.1 1010451
20:00+17se356592 0.2 1010148
2 july, sat
sat223:00+14e487476 0.2 1011159
02:00+12e477426 0.0 1012106
05:00+11e467717 0.0 101281
08:00+15e476986 0.0 1012253
11:00+20e565051 0.0 1011911
14:00+22ese454394 0.0 10112186
17:00+22e4547100 0.0 10101847
20:00+19ene4762100 0.0 1009148
3 july, sun
sun323:00+16ene41072100 0.0 1009169
02:00+15w3385100 0.5 101061
05:00+14ne3789100 2.3 1008132
08:00+16ne61077100 0.0 1008402
11:00+17ene5772100 0.0 1008314
14:00+19ese5763100 0.0 1007661
17:00+21ese5657100 0.2 10071351
20:00+18ene227299 0.3 100639
4 july, mon
mon423:00+16ne2276100 0.6 100611
02:00+14nne3587100 0.6 1006123
05:00+13n499398 0.8 1005233
08:00+14n588727 0.0 1006412
11:00+16nne788077 0.0 1006738
14:00+19nne786751 1.1 10061298
17:00+19nne9106629 3.6 10071347
20:00+17nne711744 0.1 1009974
5 july, tue
tue523:00+13nne6137799 0.1 1011408
02:00+11n378664 0.0 1012147
05:00+9n3485100 0.0 101355
08:00+13nnw4772100 0.0 1013272
11:00+18n6106362 0.0 10131092
14:00+19n71059100 0.1 10131508
17:00+20nne685929 0.1 10131410
20:00+18nne4772100 0.0 1014391